Volver al catálogo

STARLINK-5233

ActivoComunicacionesVLEO
NORAD 54160·PAYLOAD·🇺🇸 United States

Lanzado Oct 28, 2022 desde Vandenberg Space Force Base

Loading…

Próximos Pases (próximas 24 horas)

TLE

ActualizadoSource: CelesTrak SupGP

Época: Sep 14, 2026, 21:13 UTC

1 54160C 22141D   26257.88451389 -.00030577  00000+0 -98314-3 0  2572
2 54160  53.1593 188.9844 0001494  91.2040 344.4876 15.31721558    15

Sigue STARLINK-5233 en tiempo real con AllMySat

Download on the App Store